WetterOnline ( https://www.wetteronline.de )

Wetter aktuell Langweid

Aktuelles Wetter: Augsburg/Mühlhausen (477m)

6-stündlich | Neueste Meldungen
Ortszeit Temperatur Wetter
Do, 18.07. 20:00 23.5° C leicht bewölkt
Do, 18.07. 14:00 25.0° C wolkig
Do, 18.07. 8:00 15.4° C bedeckt
Do, 18.07. 2:00 10.5° C leicht bewölkt
Mi, 17.07. 20:00 22.7° C wolkenlos
Mi, 17.07. 14:00 24.0° C leicht bewölkt
Mi, 17.07. 8:00 15.4° C leicht bewölkt
Mi, 17.07. 2:00 10.0° C wolkig
Ortszeit Temperatur Wetter
Do, 18.07. 23:20 15° C -
Do, 18.07. 23:00 15.0° C wolkig
Do, 18.07. 22:50 15.0° C wolkig
Do, 18.07. 22:40 15.1° C bedeckt
Do, 18.07. 22:30 15.7° C bewölkt
Do, 18.07. 22:20 15.7° C bewölkt
Do, 18.07. 22:00 15.8° C bedeckt
Do, 18.07. 21:30 18.8° C bedeckt
Do, 18.07. 21:00 20.2° C wolkig
Do, 18.07. 20:30 22.5° C leicht bewölkt
Do, 18.07. 20:00 23.5° C leicht bewölkt
Ortszeit Relative Feuchte Sichtweite
Do, 18.07. 20:00 44% 35 km
Do, 18.07. 14:00 39% 30 km
Do, 18.07. 8:00 83% 12 km
Do, 18.07. 2:00 90% 14 km
Mi, 17.07. 20:00 41% 18 km
Mi, 17.07. 14:00 49% 21 km
Mi, 17.07. 8:00 76% 12 km
Mi, 17.07. 2:00 91% 16 km
Ortszeit Relative Feuchte Sichtweite
Do, 18.07. 23:20 82% >10 km
Do, 18.07. 23:00 82% 21 km
Do, 18.07. 22:50 82% -
Do, 18.07. 22:40 82% -
Do, 18.07. 22:30 81% 22 km
Do, 18.07. 22:20 81% -
Do, 18.07. 22:00 81% 21 km
Do, 18.07. 21:30 67% 25 km
Do, 18.07. 21:00 56% 35 km
Do, 18.07. 20:30 45% 35 km
Do, 18.07. 20:00 44% 35 km
Ortszeit Niederschlagsmenge Niederschlagsart
Do, 18.07. 20:00 0.0 l/m2 in 12 Std. -
Do, 18.07. 14:00 0.0 l/m2 in 6 Std. -
Do, 18.07. 8:00 0.0 l/m2 in 12 Std. -
Do, 18.07. 2:00 0.0 l/m2 in 6 Std. -
Mi, 17.07. 20:00 0.0 l/m2 in 12 Std. -
Mi, 17.07. 14:00 0.0 l/m2 in 6 Std. -
Mi, 17.07. 8:00 0.0 l/m2 in 12 Std. -
Mi, 17.07. 2:00 0.0 l/m2 in 6 Std. -
Ortszeit Niederschlagsmenge Niederschlagsart
Do, 18.07. 23:20 keine Meldung -
Do, 18.07. 23:00 0.0 l/m2 in 1 Std. -
Do, 18.07. 22:50 keine Meldung -
Do, 18.07. 22:40 keine Meldung -
Do, 18.07. 22:30 0.0 l/m2 in 1 Std. -
Do, 18.07. 22:20 keine Meldung -
Do, 18.07. 22:00 0.0 l/m2 in 1 Std. -
Do, 18.07. 21:30 0.0 l/m2 in 1 Std. -
Do, 18.07. 21:00 0.0 l/m2 in 1 Std. -
Do, 18.07. 20:30 0.0 l/m2 in 1 Std. -
Do, 18.07. 20:00 0.0 l/m2 in 1 Std. -
Ortszeit Stärke Spitze Richtung
km/h Bft. km/h Grad Sektor
Do, 18.07. 20:00 9 2 35 320° NW
Do, 18.07. 14:00 11 2 25 290° W
Do, 18.07. 8:00 4 1 7 180° S
Do, 18.07. 2:00 4 1 22 120° SO
Mi, 17.07. 20:00 11 2 30 350° N
Mi, 17.07. 14:00 9 2 24 300° NW
Mi, 17.07. 8:00 2 1 6 110° O
Mi, 17.07. 2:00 4 1 14 110° O
Ortszeit Stärke Spitze Richtung
km/h Bft. km/h Grad Sektor
Do, 18.07. 23:20 4 1 - 110° O
Do, 18.07. 23:00 4 1 7 100° O
Do, 18.07. 22:50 4 1 - 100° O
Do, 18.07. 22:40 4 1 - 110° O
Do, 18.07. 22:30 4 1 7 120° SO
Do, 18.07. 22:20 4 1 - 120° SO
Do, 18.07. 22:00 4 1 4 50° NO
Do, 18.07. 21:30 0 0 4 - -
Do, 18.07. 21:00 4 1 14 320° NW
Do, 18.07. 20:30 7 2 14 310° NW
Do, 18.07. 20:00 9 2 24 320° NW
Ortszeit Untergrenze Bedeckung Gattung
total tief tief mittel hoch
Do, 18.07. 20:00 8700 m 4/8 0/8 - - -
Do, 18.07. 14:00 6900 m 7/8 7/8 - - -
Do, 18.07. 8:00 4800 m 8/8 8/8 - - -
Do, 18.07. 2:00 7500 m 5/8 0/8 - - -
Mi, 17.07. 20:00 9000 m 0/8 0/8 - - -
Mi, 17.07. 14:00 1800 m 8/8 1/8 - - -
Mi, 17.07. 8:00 9000 m 7/8 0/8 - - -
Mi, 17.07. 2:00 9000 m 8/8 0/8 - - -
Ortszeit Bedeckungsgrad in Achtel und Wolkenuntergrenze
Do, 18.07. 23:20 -
Do, 18.07. 23:00 1(2700m) 8(6600m) 8(8400m)
Do, 18.07. 22:50 1(2700m) 8(6600m) 8(8400m)
Do, 18.07. 22:40 8(6600m) 8(8100m) 8(9000m)
Do, 18.07. 22:30 7(6600m) 8(8100m) 8(9000m)
Do, 18.07. 22:20 7(6600m) 8(8100m) 8(9000m)
Do, 18.07. 22:00 8(6600m) 8(7800m) 8(8700m)
Do, 18.07. 21:30 8(6900m) 8(9000m) 8(9000m)
Do, 18.07. 21:00 5(8100m) 8(9000m) 8(9000m)
Do, 18.07. 20:30 2(8400m) 3(9000m)
Do, 18.07. 20:00 4(8700m) 4(9000m)
Ortszeit Luftdruck NN (hPa) Tendenz (hPa in 3 Std.)
Do, 18.07. 20:00 1012 + 0,6
Do, 18.07. 14:00 1011 - 0,5
Do, 18.07. 8:00 1013 + 0,4
Do, 18.07. 2:00 1014 + 0,2
Mi, 17.07. 20:00 1011 - 0,5
Mi, 17.07. 14:00 1012 - 0,8
Mi, 17.07. 8:00 1015 - 0,5
Mi, 17.07. 2:00 1017 0,0
Ortszeit Luftdruck NN (hPa) Tendenz (hPa in 3 Std.)
Do, 18.07. 23:20 1015 keine Meldung
Do, 18.07. 23:00 1015 + 1,4
Do, 18.07. 22:50 1015 keine Meldung
Do, 18.07. 22:40 1015 keine Meldung
Do, 18.07. 22:30 1014 + 1,5
Do, 18.07. 22:20 1014 keine Meldung
Do, 18.07. 22:00 1014 + 1,7
Do, 18.07. 21:30 1013 + 1,3
Do, 18.07. 21:00 1013 + 1,1
Do, 18.07. 20:30 1012 + 0,7
Do, 18.07. 20:00 1012 + 0,6
Ortszeit Schneehöhe (cm)
Do, 18.07. 20:00 -
Do, 18.07. 14:00 -
Do, 18.07. 8:00 -
Do, 18.07. 2:00 -
Mi, 17.07. 20:00 -
Mi, 17.07. 14:00 -
Mi, 17.07. 8:00 -
Mi, 17.07. 2:00 -
Ortszeit Schneehöhe (cm)
Do, 18.07. 23:20 -
Do, 18.07. 23:00 -
Do, 18.07. 22:50 -
Do, 18.07. 22:40 -
Do, 18.07. 22:30 -
Do, 18.07. 22:20 -
Do, 18.07. 22:00 -
Do, 18.07. 21:30 -
Do, 18.07. 21:00 -
Do, 18.07. 20:30 -
Do, 18.07. 20:00 -
Link zu dieser Seite / Seite empfehlen

Das Wetter in ...